Tracking 30995 objects as of 5-Jul-2025
HD Live streaming from Space Station
objects crossing your sky now

COSMOS 1275 DEB

Track COSMOS 1275 DEB now!
10-day predictions


NORAD ID: 12952
Int'l Code: 1981-053EG
Perigee: 897.8 km
Apogee: 914.0 km
Inclination: 83.0 °
Period: 103.0 minutes
Semi major axis: 7276 km
RCS: 0.0421 m2 (small)
Launch date: June 4, 1981
Source: Commonwealth of Independent States (former USSR) (CIS)
Launch site: PLESETSK MISSILE AND SPACE COMPLEX (PKMTR)

Note: This is SATELLITE DEBRIS
Your satellite tracking list
Your tracking list is empty




NASA's NSSDC Master Catalog

Two Line Element Set (TLE):
1 12952U 81053EG  25186.21137508  .00000534  00000-0  36133-3 0  9996
2 12952  82.9593 240.1538 0011109  76.9873 348.3817 13.98571270214624
Source of the keplerian elements: AFSPC